Location: Zagreb
(45.8000°N, 16.0000°E)
Time: 03:36:18
(UTC+01:00)

ISS - Visible Passes

Search period start: 15 December 2017 00:00
Search period end: 25 December 2017 00:00
Orbit: 403 x 406 km, 51.6° (Epoch: 15 December)

Date Brightness Start Highest point End Pass type
(mag) Time Alt. Az. Time Alt. Az. Time Alt. Az.
15 Dec -1.7 17:57:20 10° W 18:00:11 27° SW 18:03:01 10° SSE visible
16 Dec -2.7 17:04:53 10° WNW 17:08:04 47° SW 17:11:14 10° SE visible
17 Dec -0.6 17:50:18 10° WSW 17:51:52 13° SW 17:53:27 10° SSW visible
18 Dec -1.0 16:57:11 10° W 16:59:49 22° SW 17:02:27 10° SSE visible
20 Dec 0.2 16:50:46 10° WSW 16:51:24 10° SW 16:52:03 10° SW visible
24 Dec -0.2 06:54:49 10° SSE 06:56:11 12° SE 06:57:32 10° ESE visible
